Regional Weather Roundup
Issued by NWS

Home | Current Version | Previous Version | Text Only | Print | Product List | Glossary On
Versions: 1 2 3 4 5 6 7 8 9 10 11 12 13 14 15 16 17 18 19 20 21 22 23 24 25 26 27 28 29 30 31 32 33 34 35 36 37 38 39 40 41 42 43 44 45 46 47 48 49 50
000
ASUS43 KDMX 140506
RWRIA

WEATHER ROUNDUP FOR IOWA
NATIONAL WEATHER SERVICE DES MOINES IA
1100 PM CST WED DEC 13 2017

NOTE: "FAIR" INDICATES FEW OR NO CLOUDS BELOW 12,000 FEET WITH NO
SIGNIFICANT WEATHER AND/OR OBSTRUCTIONS TO VISIBILITY.

* - THESE STATIONS ARE NOT NWS STATIONS...THUS NOT UNDER NWS
QUALITY CONTROL.  THEY ALSO DO NOT REPORT WEATHER SUCH
AS PRECIPITATION OR FOG.

IAZ001>003-012>014-020>022-031>034-043>046-140600-
   NORTHWEST IOWA

CITY           SKY/WX    TMP DP  RH WIND       PRES   REMARKS
CARROLL *      CLOUDY    30  25  80 N18       29.95R WCI  18
CHEROKEE *     CLOUDY    29  27  91 N6        29.97R WCI  23
DENISON *      CLOUDY    34  25  69 N10       29.97R WCI  26
LE MARS *      CLOUDY    34  28  80 N9G16     29.98R WCI  26
ORANGE CITY *  CLOUDY    30  28  93 N6        29.97R WCI  24
SHELDON *      CLOUDY    28  25  86 N10       29.95R WCI  19
SIOUX CITY     CLOUDY    35  28  75 N13       29.99R WCI  26
SPENCER        CLOUDY    27  20  75 N17G25    29.96R WCI  14
STORM LAKE *   CLOUDY    27  23  86 N12G21    29.96R WCI  16
$$

IAZ055>058-069>071-079>083-090>094-140600-
   SOUTHWEST IOWA

CITY           SKY/WX    TMP DP  RH WIND       PRES   REMARKS
ATLANTIC *     CLOUDY    36  23  60 N14G21    29.96R WCI  27
AUDUBON *      CLOUDY    34  25  69 N14       29.95R WCI  24
CLARINDA *     CLOUDY    37  25  60 N16G25      N/A  WCI  28
COUNCIL BLFS * CLOUDY    37  28  70 N13       29.97R WCI  29
CRESTON *      CLOUDY    34  21  60 N18G24    29.94R WCI  23
HARLAN  *      CLOUDY    34  25  69 N12       29.99R WCI  25
LAMONI         CLOUDY    35  22  58 NW14G20   29.93R WCI  26
RED OAK *      CLOUDY    37  25  60 N12       29.98R WCI  30
SHENANDOAH *   CLOUDY    39  25  56 N15G22    29.98R WCI  31
$$

IAZ047>049-059>061-072>074-084-140600-
   CENTRAL IOWA

CITY           SKY/WX    TMP DP  RH WIND       PRES   REMARKS
AMES           CLOUDY    29  20  69 N16       29.94R WCI  17
ANKENY *       CLOUDY    30  21  69 N10G18    29.96R WCI  21
BOONE *        CLOUDY    28  21  74 N14G21    29.93R WCI  17
CHARITON *     CLOUDY    32  21  64 N18G24    29.91R WCI  20
DES MOINES     CLOUDY    32  20  61 N18G24    29.94R WCI  20
GRINNELL*      CLOUDY    28  20  72 N13G22    29.92R WCI  17
KNOXVILLE *    CLOUDY    30  21  69 N16G22    29.91R WCI  19
MARSHALLTOWN   CLOUDY    26  18  71 N10       29.92R WCI  16
NEWTON *       CLOUDY    28  21  74 N18       29.93R WCI  16
PELLA *        CLOUDY    30  21  69 NW14G23   29.93R WCI  20
PERRY *        CLOUDY    30  21  67 N15       29.95R WCI  19
$$

IAZ004>006-015-016-023>025-035-036-140600-
   NORTH CENTRAL IOWA

CITY           SKY/WX    TMP DP  RH WIND       PRES   REMARKS
ALGONA *       CLOUDY    27  21  80 N9        29.95R WCI  17
CLARION *      CLOUDY    25  19  80 N9        29.95R WCI  15
ESTHERVILLE    CLOUDY    24  18  77 N13       29.95R WCI  12
FORT DODGE *   CLOUDY    27  19  72 N8        29.95R WCI  19
MASON CITY     CLOUDY    23  15  71 N10       29.94R WCI  12
FOREST CITY *  CLOUDY    25  19  80 N10       29.93R WCI  15
WEBSTER CITY * CLOUDY    27  19  74 N15       29.92R WCI  15
IOWA FALLS *   CLOUDY    27  19  74 N13       29.93R WCI  16
$$

IAZ007>011-017>019-026>030-037>042-050>054-066-140600-
   NORTHEAST IOWA

CITY           SKY/WX    TMP DP  RH WIND       PRES   REMARKS
CEDAR RAPIDS   CLOUDY    26  17  68 N13       29.89R WCI  15
CHARLES CITY * CLOUDY    25  18  74 N12       29.90R WCI  14
DECORAH *      PTCLDY    18  12  79 N7        29.87R WCI   8
DUBUQUE        CLOUDY    21  14  74 N10       29.85R WCI  10
MONTICELLO *   CLOUDY    25  16  68 N8        29.88R WCI  16
OELWEIN *      CLEAR     18  16  93 N8        29.90R WCI   7
WATERLOO       CLOUDY    24  15  68 N10       29.92R WCI  14
$$

IAZ064-065-067-068-078-140600-
   EAST CENTRAL IOWA

CITY           SKY/WX    TMP DP  RH WIND       PRES   REMARKS
DAVENPORT      CLOUDY    26  16  65 N14       29.90R WCI  14
IOWA CITY      CLOUDY    29  18  63 N10       29.92R WCI  20
MT. PLEASANT * CLOUDY    29  19  67 N20G26    29.88R WCI  16
MUSCATINE *    CLOUDY    28  18  64 N10G18    29.91R WCI  19
QUAD CITIES    CLOUDY    28  17  63 NW12      29.87R WCI  18
$$

IAZ062-063-075>077-085>089-095>099-140600-
   SOUTHEAST IOWA

CITY           SKY/WX    TMP DP  RH WIND       PRES   REMARKS
BURLINGTON     CLOUDY    29  20  69 N14       29.87R WCI  18
FAIRFIELD *    CLOUDY    30  21  69 N17       29.89R WCI  18
FORT MADISON * CLOUDY    30  23  74 N18G26    29.88R WCI  18
KEOKUK *       CLOUDY    34  25  69 NW17      29.88R WCI  23
OSKALOOSA *    CLOUDY    30  23  75 N20       29.91R WCI  17
OTTUMWA        CLOUDY    31  22  69 N21       29.91R WCI  18
WASHINGTON *   CLOUDY    28  21  74 N17G23    29.91R WCI  16
$$

ABBREVIATIONS USED IN REMARKS
   TC - TEMPERATURES IN CELSIUS
  WCI - WIND CHILL INDEX
   HX - HEAT INDEX
  VSB - VISIBILITY
$$




USA.gov is the U.S. government's official web portal to all federal, state and local government web resources and services.